Time,TemperatureF,DewpointF,PressureIn,WindDirection,WindDirectionDegrees,WindSpeedMPH,WindSpeedGustMPH,Humidity,HourlyPrecipIn,Conditions,Clouds,dailyrainin,SoftwareType,DateUTC
2013-11-24 00:03:00,53.5,40.4,30.09,North,5,4.0,4.0,61,0.00,,,0.00,Wunderground v.1.15,2013-11-24 05:03:00,
2013-11-24 00:14:00,53.0,39.9,30.08,North,5,3.0,3.0,61,0.00,,,0.00,Wunderground v.1.15,2013-11-24 05:14:00,
2013-11-24 00:18:00,52.7,39.2,30.08,North,9,3.0,3.0,60,0.00,,,0.00,Wunderground v.1.15,2013-11-24 05:18:00,
2013-11-24 00:29:00,52.2,36.0,30.08,North,9,5.0,5.0,54,0.00,,,0.00,Wunderground v.1.15,2013-11-24 05:29:00,
2013-11-24 00:39:00,51.8,35.2,30.08,North,355,4.0,4.0,53,0.00,,,0.00,Wunderground v.1.15,2013-11-24 05:39:00,
2013-11-24 00:54:00,51.1,34.1,30.09,NNE,27,4.0,4.0,52,0.00,,,0.00,Wunderground v.1.15,2013-11-24 05:54:00,
2013-11-24 00:58:00,50.9,33.4,30.09,North,9,4.0,4.0,51,0.00,,,0.00,Wunderground v.1.15,2013-11-24 05:58:00,
2013-11-24 01:09:00,50.4,32.9,30.09,North,10,5.0,5.0,51,0.00,,,0.00,Wunderground v.1.15,2013-11-24 06:09:00,
2013-11-24 01:24:00,49.7,31.8,30.10,North,5,4.0,4.0,50,0.00,,,0.00,Wunderground v.1.15,2013-11-24 06:24:00,
2013-11-24 01:34:00,49.3,30.9,30.11,North,360,5.0,5.0,49,0.00,,,0.00,Wunderground v.1.15,2013-11-24 06:34:00,
2013-11-24 01:49:00,48.8,29.4,30.12,NNE,32,6.0,6.0,47,0.00,,,0.00,Wunderground v.1.15,2013-11-24 06:49:00,
2013-11-24 02:04:00,48.4,27.5,30.12,North,9,9.0,12.0,44,0.00,,,0.00,Wunderground v.1.15,2013-11-24 07:04:00,
2013-11-24 02:19:00,47.8,26.4,30.13,North,360,7.0,7.0,43,0.00,,,0.00,Wunderground v.1.15,2013-11-24 07:19:00,
2013-11-24 02:33:00,47.1,26.8,30.13,North,5,6.0,6.0,45,0.00,,,0.00,Wunderground v.1.15,2013-11-24 07:33:00,
2013-11-24 02:44:00,46.7,26.5,30.13,North,9,5.0,5.0,45,0.00,,,0.00,Wunderground v.1.15,2013-11-24 07:44:00,
2013-11-24 02:59:00,46.0,26.4,30.13,NNE,20,6.0,6.0,46,0.00,,,0.00,Wunderground v.1.15,2013-11-24 07:59:00,
2013-11-24 03:09:00,45.7,26.6,30.14,NNE,26,6.0,6.0,47,0.00,,,0.00,Wunderground v.1.15,2013-11-24 08:09:00,
2013-11-24 03:24:00,45.2,26.7,30.14,North,5,7.0,11.0,48,0.00,,,0.00,Wunderground v.1.15,2013-11-24 08:24:00,
2013-11-24 03:39:00,44.7,26.7,30.15,North,355,6.0,6.0,49,0.00,,,0.00,Wunderground v.1.15,2013-11-24 08:39:00,
2013-11-24 03:54:00,44.2,26.2,30.15,NNE,29,6.0,6.0,49,0.00,,,0.00,Wunderground v.1.15,2013-11-24 08:54:00,
2013-11-24 04:09:00,43.8,26.3,30.17,NNE,13,7.0,7.0,50,0.00,,,0.00,Wunderground v.1.15,2013-11-24 09:09:00,
2013-11-24 04:19:00,43.4,26.5,30.17,NE,42,6.0,6.0,51,0.00,,,0.00,Wunderground v.1.15,2013-11-24 09:19:00,
2013-11-24 04:34:00,42.9,26.0,30.18,North,360,6.0,6.0,51,0.00,,,0.00,Wunderground v.1.15,2013-11-24 09:34:00,
2013-11-24 04:49:00,42.4,26.0,30.18,NE,38,5.0,5.0,52,0.00,,,0.00,Wunderground v.1.15,2013-11-24 09:49:00,
2013-11-24 05:04:00,42.1,25.3,30.19,NNE,23,7.0,7.0,51,0.00,,,0.00,Wunderground v.1.15,2013-11-24 10:04:00,
2013-11-24 05:19:00,41.7,25.8,30.20,North,11,5.0,5.0,53,0.00,,,0.00,Wunderground v.1.15,2013-11-24 10:19:00,
2013-11-24 05:29:00,41.3,25.4,30.20,NNE,14,5.0,5.0,53,0.00,,,0.00,Wunderground v.1.15,2013-11-24 10:29:00,
2013-11-24 05:44:00,41.0,25.6,30.21,NNE,12,7.0,7.0,54,0.00,,,0.00,Wunderground v.1.15,2013-11-24 10:44:00,
2013-11-24 05:59:00,40.6,25.7,30.22,North,5,6.0,6.0,55,0.00,,,0.00,Wunderground v.1.15,2013-11-24 10:59:00,
2013-11-24 06:14:00,40.2,24.9,30.23,NE,36,7.0,7.0,54,0.00,,,0.00,Wunderground v.1.15,2013-11-24 11:14:00,
2013-11-24 06:29:00,39.5,25.1,30.24,North,5,6.0,6.0,56,0.00,,,0.00,Wunderground v.1.15,2013-11-24 11:29:00,
2013-11-24 06:44:00,38.9,24.1,30.25,North,355,7.0,7.0,55,0.00,,,0.00,Wunderground v.1.15,2013-11-24 11:44:00,
2013-11-24 06:59:00,38.4,22.7,30.26,NNE,27,7.0,7.0,53,0.00,,,0.00,Wunderground v.1.15,2013-11-24 11:59:00,
2013-11-24 07:09:00,38.1,22.0,30.27,North,11,7.0,9.0,52,0.00,,,0.00,Wunderground v.1.15,2013-11-24 12:09:00,
2013-11-24 07:24:00,37.8,20.8,30.28,North,360,7.0,7.0,50,0.00,,,0.00,Wunderground v.1.15,2013-11-24 12:24:00,
2013-11-24 07:39:00,37.4,20.4,30.29,North,360,8.0,8.0,50,0.00,,,0.00,Wunderground v.1.15,2013-11-24 12:39:00,
2013-11-24 07:49:00,37.3,20.3,30.29,NNE,30,8.0,12.0,50,0.00,,,0.00,Wunderground v.1.15,2013-11-24 12:49:00,
2013-11-24 08:04:00,37.7,20.2,30.30,NNE,23,9.0,9.0,49,0.00,,,0.00,Wunderground v.1.15,2013-11-24 13:04:00,
2013-11-24 08:19:00,38.0,20.0,30.32,NNW,344,10.0,10.0,48,0.00,,,0.00,Wunderground v.1.15,2013-11-24 13:19:00,
2013-11-24 08:34:00,37.9,19.9,30.32,North,11,9.0,9.0,48,0.00,,,0.00,Wunderground v.1.15,2013-11-24 13:34:00,
2013-11-24 08:44:00,38.0,19.5,30.33,North,360,10.0,10.0,47,0.00,,,0.00,Wunderground v.1.15,2013-11-24 13:44:00,
2013-11-24 08:59:00,38.2,19.2,30.34,NE,42,12.0,12.0,46,0.00,,,0.00,Wunderground v.1.15,2013-11-24 13:59:00,
2013-11-24 09:14:00,38.4,19.4,30.34,North,355,10.0,10.0,46,0.00,,,0.00,Wunderground v.1.15,2013-11-24 14:14:00,
2013-11-24 09:29:00,38.8,19.2,30.35,NNE,32,11.0,11.0,45,0.00,,,0.00,Wunderground v.1.15,2013-11-24 14:29:00,
2013-11-24 09:39:00,39.1,19.0,30.35,NNW,340,10.0,10.0,44,0.00,,,0.00,Wunderground v.1.15,2013-11-24 14:39:00,
2013-11-24 09:54:00,39.2,19.6,30.35,North,350,11.0,11.0,45,0.00,,,0.00,Wunderground v.1.15,2013-11-24 14:54:00,
2013-11-24 10:09:00,39.8,19.1,30.36,NE,45,12.0,12.0,43,0.00,,,0.00,Wunderground v.1.15,2013-11-24 15:09:00,
2013-11-24 10:24:00,40.2,18.9,30.36,NNE,29,9.0,15.0,42,0.00,,,0.00,Wunderground v.1.15,2013-11-24 15:24:00,
2013-11-24 10:39:00,40.5,19.2,30.37,NNE,28,10.0,15.0,42,0.00,,,0.00,Wunderground v.1.15,2013-11-24 15:39:00,
2013-11-24 10:49:00,40.4,19.1,30.38,NNE,26,12.0,12.0,42,0.00,,,0.00,Wunderground v.1.15,2013-11-24 15:49:00,
2013-11-24 11:04:00,40.8,18.3,30.38,NE,38,11.0,11.0,40,0.00,,,0.00,Wunderground v.1.15,2013-11-24 16:04:00,
2013-11-24 11:19:00,41.7,17.3,30.37,North,355,7.0,7.0,37,0.00,,,0.00,Wunderground v.1.15,2013-11-24 16:19:00,
2013-11-24 11:34:00,41.3,17.6,30.37,North,5,10.0,13.0,38,0.00,,,0.00,Wunderground v.1.15,2013-11-24 16:34:00,
2013-11-24 11:49:00,41.8,14.1,30.37,NE,44,8.0,10.0,32,0.00,,,0.00,Wunderground v.1.15,2013-11-24 16:49:00,
2013-11-24 11:59:00,41.8,13.3,30.37,NNE,12,10.0,14.0,31,0.00,,,0.00,Wunderground v.1.15,2013-11-24 16:59:00,
2013-11-24 12:14:00,41.4,10.7,30.36,NNE,30,11.0,11.0,28,0.00,,,0.00,Wunderground v.1.15,2013-11-24 17:14:00,
2013-11-24 12:29:00,41.5,9.1,30.36,NNE,13,11.0,12.0,26,0.00,,,0.00,Wunderground v.1.15,2013-11-24 17:29:00,
2013-11-24 12:44:00,42.8,11.9,30.35,NNE,13,7.0,7.0,28,0.00,,,0.00,Wunderground v.1.15,2013-11-24 17:44:00,
2013-11-24 12:59:00,42.8,13.5,30.35,NNE,33,9.0,9.0,30,0.00,,,0.00,Wunderground v.1.15,2013-11-24 17:59:00,
2013-11-24 13:14:00,42.8,11.9,30.35,NNW,342,9.0,9.0,28,0.00,,,0.00,Wunderground v.1.15,2013-11-24 18:14:00,
2013-11-24 13:28:00,42.9,12.8,30.34,NNE,26,7.0,7.0,29,0.00,,,0.00,Wunderground v.1.15,2013-11-24 18:28:00,
2013-11-24 13:39:00,43.2,13.0,30.34,ENE,57,7.0,9.0,29,0.00,,,0.00,Wunderground v.1.15,2013-11-24 18:39:00,
2013-11-24 13:54:00,43.4,13.2,30.34,NNE,25,8.0,8.0,29,0.00,,,0.00,Wunderground v.1.15,2013-11-24 18:54:00,
2013-11-24 14:09:00,43.2,13.0,30.34,NE,48,8.0,9.0,29,0.00,,,0.00,Wunderground v.1.15,2013-11-24 19:09:00,
2013-11-24 14:24:00,43.2,12.2,30.34,NNE,13,7.0,8.0,28,0.00,,,0.00,Wunderground v.1.15,2013-11-24 19:24:00,
2013-11-24 14:39:00,43.6,13.4,30.34,NNE,23,7.0,7.0,29,0.00,,,0.00,Wunderground v.1.15,2013-11-24 19:39:00,
2013-11-24 14:49:00,43.7,12.7,30.34,North,355,6.0,6.0,28,0.00,,,0.00,Wunderground v.1.15,2013-11-24 19:49:00,
2013-11-24 15:09:00,42.8,11.1,30.35,NE,35,10.0,10.0,27,0.00,,,0.00,Wunderground v.1.15,2013-11-24 20:09:00,
2013-11-24 15:19:00,43.0,11.2,30.35,NNE,32,8.0,8.0,27,0.00,,,0.00,Wunderground v.1.15,2013-11-24 20:19:00,
2013-11-24 15:34:00,42.6,10.1,30.35,NNE,24,9.0,10.0,26,0.00,,,0.00,Wunderground v.1.15,2013-11-24 20:34:00,
2013-11-24 15:49:00,42.7,11.0,30.36,NNE,15,6.0,7.0,27,0.00,,,0.00,Wunderground v.1.15,2013-11-24 20:49:00,
2013-11-24 16:04:00,42.5,10.8,30.37,North,11,6.0,6.0,27,0.00,,,0.00,Wunderground v.1.15,2013-11-24 21:04:00,
2013-11-24 16:19:00,42.2,11.4,30.37,NNE,26,5.0,5.0,28,0.00,,,0.00,Wunderground v.1.15,2013-11-24 21:19:00,
2013-11-24 16:29:00,41.9,11.1,30.37,NNE,22,5.0,7.0,28,0.00,,,0.00,Wunderground v.1.15,2013-11-24 21:29:00,
2013-11-24 16:44:00,41.3,10.6,30.37,NNE,19,6.0,12.0,28,0.00,,,0.00,Wunderground v.1.15,2013-11-24 21:44:00,
2013-11-24 16:59:00,40.4,10.6,30.38,NE,34,6.0,7.0,29,0.00,,,0.00,Wunderground v.1.15,2013-11-24 21:59:00,
2013-11-24 17:14:00,39.7,11.5,30.38,NE,38,5.0,5.0,31,0.00,,,0.00,Wunderground v.1.15,2013-11-24 22:14:00,
2013-11-24 17:29:00,39.1,13.1,30.39,NNE,19,4.0,5.0,34,0.00,,,0.00,Wunderground v.1.15,2013-11-24 22:29:00,
2013-11-24 17:44:00,38.4,12.4,30.40,NNE,33,4.0,4.0,34,0.00,,,0.00,Wunderground v.1.15,2013-11-24 22:44:00,
2013-11-24 17:58:00,37.9,13.3,30.41,NNE,32,3.0,3.0,36,0.00,,,0.00,Wunderground v.1.15,2013-11-24 22:58:00,
2013-11-24 18:14:00,37.4,14.1,30.41,NNE,29,1.0,1.0,38,0.00,,,0.00,Wunderground v.1.15,2013-11-24 23:14:00,
2013-11-24 18:29:00,36.7,15.7,30.41,NNE,28,3.0,4.0,42,0.00,,,0.00,Wunderground v.1.15,2013-11-24 23:29:00,
2013-11-24 18:39:00,36.3,15.4,30.42,NNE,32,3.0,4.0,42,0.00,,,0.00,Wunderground v.1.15,2013-11-24 23:39:00,
2013-11-24 18:54:00,36.0,14.5,30.43,NE,38,3.0,3.0,41,0.00,,,0.00,Wunderground v.1.15,2013-11-24 23:54:00,
2013-11-24 19:09:00,35.5,15.2,30.43,ENE,62,2.0,2.0,43,0.00,,,0.00,Wunderground v.1.15,2013-11-25 00:09:00,
2013-11-24 19:24:00,35.2,13.8,30.45,NE,44,3.0,3.0,41,0.00,,,0.00,Wunderground v.1.15,2013-11-25 00:24:00,
2013-11-24 19:39:00,35.0,13.6,30.45,NNE,26,2.0,2.0,41,0.00,,,0.00,Wunderground v.1.15,2013-11-25 00:39:00,
2013-11-24 19:53:00,34.7,13.4,30.46,NE,35,2.0,2.0,41,0.00,,,0.00,Wunderground v.1.15,2013-11-25 00:53:00,
2013-11-24 20:04:00,34.4,13.1,30.46,NE,38,2.0,4.0,41,0.00,,,0.00,Wunderground v.1.15,2013-11-25 01:04:00,
2013-11-24 20:19:00,33.9,13.7,30.46,NE,54,3.0,3.0,43,0.00,,,0.00,Wunderground v.1.15,2013-11-25 01:19:00,
2013-11-24 20:34:00,33.5,13.9,30.47,NE,47,1.0,4.0,44,0.00,,,0.00,Wunderground v.1.15,2013-11-25 01:34:00,
2013-11-24 20:49:00,33.2,13.1,30.48,NE,44,1.0,2.0,43,0.00,,,0.00,Wunderground v.1.15,2013-11-25 01:49:00,
2013-11-24 20:59:00,33.0,13.4,30.48,NNE,32,2.0,2.0,44,0.00,,,0.00,Wunderground v.1.15,2013-11-25 01:59:00,
2013-11-24 21:14:00,32.5,14.0,30.49,NE,37,1.0,1.0,46,0.00,,,0.00,Wunderground v.1.15,2013-11-25 02:14:00,
2013-11-24 21:29:00,32.1,14.1,30.49,NE,37,1.0,1.0,47,0.00,,,0.00,Wunderground v.1.15,2013-11-25 02:29:00,
2013-11-24 21:44:00,31.6,14.1,30.49,NE,37,1.0,2.0,48,0.00,,,0.00,Wunderground v.1.15,2013-11-25 02:44:00,
2013-11-24 21:54:00,31.1,14.6,30.50,NE,37,1.0,1.0,50,0.00,,,0.00,Wunderground v.1.15,2013-11-25 02:54:00,
2013-11-24 22:03:00,30.9,14.4,30.50,NE,37,0.0,2.0,50,0.00,,,0.00,Wunderground v.1.15,2013-11-25 03:03:00,
2013-11-24 22:14:00,30.7,16.4,30.50,NE,37,1.0,1.0,55,0.00,,,0.00,Wunderground v.1.15,2013-11-25 03:14:00,
2013-11-24 22:29:00,30.1,15.9,30.49,NE,37,1.0,1.0,55,0.00,,,0.00,Wunderground v.1.15,2013-11-25 03:29:00,
2013-11-24 22:43:00,29.7,15.5,30.49,NE,37,0.0,1.0,55,0.00,,,0.00,Wunderground v.1.15,2013-11-25 03:43:00,
2013-11-24 22:54:00,29.8,15.2,30.49,NE,46,2.0,2.0,54,0.00,,,0.00,Wunderground v.1.15,2013-11-25 03:54:00,
2013-11-24 23:03:00,29.8,14.7,30.48,NE,53,2.0,4.0,53,0.00,,,0.00,Wunderground v.1.15,2013-11-25 04:03:00,
2013-11-24 23:14:00,29.9,14.8,30.48,NE,46,2.0,2.0,53,0.00,,,0.00,Wunderground v.1.15,2013-11-25 04:14:00,
2013-11-24 23:29:00,29.9,14.4,30.48,NE,49,3.0,4.0,52,0.00,,,0.00,Wunderground v.1.15,2013-11-25 04:29:00,
2013-11-24 23:39:00,30.0,14.5,30.48,NE,44,3.0,3.0,52,0.00,,,0.00,Wunderground v.1.15,2013-11-25 04:39:00,
2013-11-24 23:54:00,30.1,14.1,30.48,NE,49,3.0,3.0,51,0.00,,,0.00,Wunderground v.1.15,2013-11-25 04:54:00,